Regional Weather Roundup
Issued by NWS

Home | Current Version | Previous Version | Text Only | Print | Product List | Glossary Off
Versions: 1 2 3 4 5 6 7 8 9 10 11 12 13 14 15 16 17 18 19 20 21 22 23 24 25 26 27 28 29 30 31 32 33 34 35 36 37 38 39 40 41 42 43 44 45 46 47 48 49 50

195
ASUS43 KLMK 240610
RWRKY
KENTUCKY REGIONAL WEATHER ROUNDUP
NATIONAL WEATHER SERVICE LOUISVILLE KY
200 AM EDT FRI MAR 24 2017

NOTE "FAIR" INDICATES FEW OR NO CLOUDS BELOW 12,000 FEET
WITH NO SIGNIFICANT WEATHER AND/OR OBSTRUCTIONS TO VISIBILITY.

KYZ001>023-026-027-061>063-070>075-240700-
WESTERN AND SOUTH CENTRAL KENTUCKY

CITY           SKY/WX    TMP DP  RH WIND       PRES   REMARKS
PADUCAH        CLEAR     55  44  66 SE6       30.08F
HENDERSON      CLEAR     52  41  66 SE10      30.10F
OWENSBORO      CLEAR     55  44  66 S12       30.13F
HOPKINSVILLE   CLEAR     62  47  56 SE12      30.15S
BOWLING GREEN  CLEAR     60  42  51 S13G21    30.20F
GLASGOW        CLEAR     56  39  52 S12G17    30.21F
$$

KYZ024-025-028>034-038-045-046-053-240700-
NORTH CENTRAL KENTUCKY

CITY           SKY/WX    TMP DP  RH WIND       PRES   REMARKS
LOUISVILLE/SDF MOCLDY    60  38  43 S13       30.17F
LOUISVILLE/LOU PTCLDY    58  40  51 S6        30.18F
FORT KNOX      PTCLDY    55  41  58 S13       30.15F
$$

KYZ035>037-039>044-047>052-055>060-089>105-240700-
NORTHEAST KENTUCKY

CITY           SKY/WX    TMP DP  RH WIND       PRES   REMARKS
LEXINGTON      CLEAR     54  38  54 S12       30.21F
COVINGTON      PTCLDY    51  34  52 S7        30.17F
FRANKFORT      CLEAR     56  38  50 S9        30.19F
$$

KYZ054-064>069-076>088-106>120-240700-
SOUTHEAST KENTUCKY

CITY           SKY/WX    TMP DP  RH WIND       PRES   REMARKS
JACKSON        CLEAR     55  34  45 SW5       30.27F
LONDON         CLEAR     55  36  48 S6        30.28F
SOMERSET       PTCLDY    55  36  47 S13G20    30.28F
MIDDLESBORO    CLEAR     56  38  50 S9        30.34S
MONTICELLO     CLEAR     57  39  51 SE12      30.28F
$$





USA.gov is the U.S. government's official web portal to all federal, state and local government web resources and services.